Date,TemperatureHighF,TemperatureAvgF,TemperatureLowF,DewpointHighF,DewpointAvgF,DewpointLowF,HumidityHigh,HumidityAvg,HumidityLow,PressureMaxIn,PressureMinIn,WindSpeedMaxMPH,WindSpeedAvgMPH,GustSpeedMaxMPH,PrecipitationSumIn
2013-6-1,84,76,67,70,66,63,95,75,57,0.00,40.00,12,6,22,0.28
2013-6-2,82,73,69,72,68,-100,97,89,65,0.00,40.00,6,2,20,2.34
2013-6-3,85,74,64,68,63,57,98,75,39,0.00,40.00,6,2,11,0.63
2013-6-4,86,71,56,67,60,55,97,73,40,0.00,40.00,6,2,14,0.00
2013-6-5,83,69,61,70,65,60,97,88,64,0.00,40.00,4,1,17,0.23
2013-6-6,82,72,63,69,66,62,98,85,61,0.00,40.00,7,2,14,0.61
2013-6-7,84,72,66,69,67,65,98,87,56,0.00,40.00,5,1,11,0.95
2013-6-8,84,72,65,69,66,63,98,82,50,0.00,40.00,6,2,16,0.08
2013-6-9,84,72,65,71,68,64,97,88,66,0.00,40.00,8,2,28,0.13
2013-6-10,84,75,70,70,67,62,97,77,51,0.00,40.00,11,7,21,0.42
2013-6-11,92,77,65,74,68,64,98,78,40,0.00,40.00,5,1,21,0.03
2013-6-12,92,79,68,76,71,67,97,80,51,0.00,40.00,8,2,13,0.01
2013-6-13,90,79,70,74,70,63,96,76,55,0.00,40.00,12,5,26,0.00
2013-6-14,85,74,59,64,58,55,96,62,37,0.00,40.00,9,4,20,0.00
2013-6-15,85,72,58,66,61,57,97,72,45,0.00,40.00,8,2,14,0.00
2013-6-16,87,74,62,71,65,61,97,77,52,0.00,40.00,10,2,17,0.00
2013-6-17,85,74,69,71,69,67,94,85,60,0.00,40.00,5,2,16,0.09
2013-6-18,80,72,65,72,68,64,97,86,64,0.00,40.00,11,3,20,0.77
2013-6-19,88,73,60,70,63,59,97,76,38,0.00,40.00,6,2,11,0.02
2013-6-20,88,73,62,69,65,61,97,80,47,0.00,40.00,5,1,10,0.00
2013-6-22,89,82,68,70,66,62,94,60,42,0.00,40.00,4,1,10,0.00
2013-6-23,87,75,63,69,66,62,97,77,52,0.00,40.00,2,0,14,0.00
2013-6-24,89,77,65,72,68,64,97,78,49,0.00,40.00,6,1,13,0.00
2013-6-25,84,76,69,74,71,68,96,84,66,0.00,40.00,4,1,12,0.00
2013-6-26,89,78,67,75,71,66,97,81,56,0.00,40.00,9,3,17,0.30
2013-6-27,87,80,74,77,72,70,96,79,68,0.00,40.00,10,5,16,0.30
2013-6-28,91,78,68,73,70,66,98,80,49,0.00,40.00,7,2,14,0.01
2013-6-29,88,77,66,70,64,57,96,69,36,0.00,40.00,8,2,13,0.01
2013-6-30,89,75,62,67,63,57,97,71,34,0.00,40.00,8,2,15,0.22